Location: Delia
(51.6321°N, 112.3740°W)
Time: 14:32:38
(UTC+00:00)

Envisat - Pass Details

Date: 09 December 2021
Orbit: 764 x 766 km, 98.2° (Epoch: 28 January)

Event Time Altitude Azimuth Distance (km) Brightness Sun altitude
Rises 12:24:35 0° 16° (NNE) 3,247 6.4 -26.5°
Reaches altitude 10° 12:26:56 10° 20° (NNE) 2,316 5.6 -26.1°
Maximum altitude 12:32:00 63° 102° (ESE) 854 3.4 -25.4°
Drops below altitude 10° 12:37:02 10° 183° (S) 2,298 5.5 -24.6°
Sets 12:39:21 0° 187° (S) 3,219 6.2 -24.2°
